1522609200.42,51003,10.56,71084.0,-10.99,-12.83,-12.57,0,*6F
1522609201.7,51004,10.56,71080.5,-10.99,-12.79,-12.65,0,*6C
1522609202.97,51005,10.56,71078.8,-10.97,-13.01,-12.79,0,*60
1522609204.21,51006,10.56,71126.5,-10.97,-13.11,-12.71,0,*6A
1522609205.48,51007,10.56,71064.3,-10.97,-12.71,-12.53,0,*6C
1522609206.72,51008,10.56,71044.5,-10.99,-13.15,-13.11,0,*69
1522609207.98,51009,10.56,71032.0,-10.99,-13.29,-12.97,0,*68
1522609209.25,51010,10.56,71088.3,-10.99,-13.51,-13.01,0,*61
1522609210.49,51011,10.56,70982.5,-10.99,-13.65,-13.23,0,*67
1522609211.72,51012,10.56,71058.3,-10.99,-13.69,-13.11,0,*69
1522609212.96,51013,10.56,71116.5,-10.99,-13.65,-13.11,0,*64
1522609214.2,51014,10.56,71138.8,-10.99,-13.55,-12.97,0,*6F
1522609215.46,51015,10.56,71024.5,-10.99,-13.55,-13.01,0,*60
1522609216.68,51016,10.56,71052.8,-10.97,-13.51,-12.97,0,*67
1522609217.95,51017,10.56,71134.3,-10.99,-13.51,-13.01,0,*66
1522609219.17,51018,10.56,71086.3,-10.97,-13.51,-13.11,0,*66
1522609220.41,51019,10.56,71172.8,-10.99,-13.65,-13.11,0,*6E
1522609221.65,51020,10.56,71088.3,-10.99,-13.51,-12.97,0,*6C
1522609222.9,51021,10.56,70952.5,-10.97,-13.23,-12.83,0,*63
1522609224.16,51022,10.56,71092.0,-10.99,-13.11,-12.71,0,*62
1522609225.41,51023,10.56,71100.8,-10.97,-13.29,-12.89,0,*61
1522609226.7,51024,10.56,71122.0,-10.99,-13.37,-12.83,0,*6D
1522609227.94,51025,10.56,71128.0,-10.97,-13.29,-12.89,0,*67
1522609229.21,51026,10.56,71180.5,-10.99,-13.37,-12.97,0,*6A
1522609230.42,51027,10.56,71146.3,-10.97,-13.65,-13.11,0,*6D
1522609231.68,51028,10.56,71132.8,-10.99,-13.55,-13.01,0,*6E
1522609232.9,51029,10.56,71136.3,-10.97,-13.51,-12.97,0,*6B
1522609234.15,51030,10.56,71194.5,-10.99,-13.51,-12.97,0,*6D
1522609235.36,51031,10.56,71204.8,-10.97,-13.43,-12.97,0,*61
1522609236.6,51032,10.56,71176.5,-10.97,-13.43,-12.83,0,*67
1522609237.82,51033,10.56,71076.5,-10.97,-12.89,-12.43,0,*6D
1522609239.06,51034,10.63,71150.3,-10.97,-12.57,-12.25,0,*69
1522609240.32,51035,10.56,71178.8,-10.99,-12.29,-12.11,0,*68
1522609241.54,51036,10.56,71178.5,-10.97,-12.39,-12.39,0,*6E
1522609242.78,51037,10.56,71216.0,-10.97,-12.57,-12.29,0,*66
1522609244.04,51038,10.56,71196.3,-10.99,-12.53,-12.25,0,*6F
1522609245.31,51039,10.56,71158.8,-10.99,-12.29,-12.11,0,*64
1522609246.58,51040,10.56,71156.0,-10.97,-12.15,-12.11,0,*6B
1522609247.84,51041,10.56,71200.5,-10.99,-12.25,-12.15,0,*63
1522609249.06,51042,10.56,71216.3,-10.97,-12.29,-12.25,0,*61
1522609250.28,51043,10.56,71232.5,-10.97,-12.29,-12.29,0,*6C
1522609251.53,51044,10.56,71128.8,-10.97,-12.53,-12.43,0,*6A
1522609252.81,51045,10.56,71130.0,-10.99,-12.65,-12.65,0,*64
1522609254.07,51046,10.56,71084.0,-10.97,-12.71,-12.65,0,*6C
1522609255.31,51047,10.56,71092.0,-10.97,-12.71,-12.29,0,*65
1522609256.58,51048,10.56,71170.0,-10.99,-12.29,-11.97,0,*6F
1522609257.87,51049,10.56,71206.0,-10.99,-11.97,-11.97,0,*68
1522609259.14,51050,10.56,71210.8,-10.97,-12.15,-12.11,0,*6A
1522609260.38,51051,10.56,71202.3,-10.99,-12.29,-12.25,0,*6D
1522609261.62,51052,10.56,71192.8,-10.97,-12.29,-12.11,0,*67
1522609262.88,51053,10.56,71148.0,-10.99,-12.39,-12.11,0,*69
1522609264.12,51054,10.56,71208.3,-10.99,-12.39,-12.25,0,*69
1522609265.36,51055,10.56,71106.3,-10.99,-12.43,-12.25,0,*65
1522609266.59,51056,10.56,71034.5,-10.97,-12.43,-12.15,0,*6B
1522609267.85,51057,10.56,71042.0,-10.99,-12.43,-12.11,0,*60
1522609269.1,51058,10.56,71152.3,-10.97,-12.25,-12.11,0,*61
1522609270.36,51059,10.56,71080.3,-10.99,-12.11,-12.03,0,*6A
1522609271.6,51060,10.56,71062.8,-10.99,-12.29,-12.25,0,*6F
1522609272.87,51061,10.56,71084.3,-10.99,-12.29,-12.11,0,*69
1522609274.11,51062,10.56,71154.8,-10.99,-12.29,-12.25,0,*6D
1522609275.38,51063,10.56,71182.5,-10.97,-12.57,-12.53,0,*6A
1522609276.67,51064,10.56,71162.5,-10.99,-12.71,-12.65,0,*62
1522609277.9,51065,10.56,71120.0,-10.97,-12.89,-12.65,0,*6A
1522609279.19,51066,10.56,71108.0,-10.99,-12.79,-12.79,0,*65
1522609280.43,51067,10.56,71130.5,-10.99,-12.97,-12.89,0,*6B
1522609281.73,51068,10.56,71130.8,-10.99,-13.37,-12.83,0,*65
1522609283.0,51069,10.56,71128.3,-10.99,-13.23,-12.71,0,*6C
1522609284.24,51070,10.56,71122.5,-10.99,-13.11,-12.43,0,*64
1522609285.48,51071,10.56,71118.8,-10.97,-12.71,-12.43,0,*6C
1522609286.71,51072,10.56,71068.8,-10.99,-12.43,-12.25,0,*60
1522609287.98,51073,10.56,71098.0,-10.99,-12.29,-12.15,0,*6E
1522609289.25,51074,10.56,71124.0,-10.99,-12.29,-12.11,0,*6D
1522609290.47,51075,10.56,71104.5,-11.01,-12.25,-12.25,0,*67
1522609291.69,51076,10.56,71142.3,-10.97,-12.29,-12.29,0,*6A
1522609292.95,51077,10.56,71160.5,-10.97,-12.71,-12.65,0,*6E
1522609294.22,51078,10.56,71194.5,-10.97,-13.29,-12.79,0,*60
1522609295.51,51079,10.56,71152.5,-10.99,-13.01,-12.71,0,*6D
1522609296.77,51080,10.56,71120.8,-10.97,-13.01,-12.65,0,*60
1522609298.07,51081,10.56,71104.5,-10.99,-12.71,-12.53,0,*6C
1522609299.35,51082,10.56,71148.3,-10.99,-12.65,-12.65,0,*6F
1522609300.59,51083,10.56,71098.3,-10.97,-13.11,-12.79,0,*6F
1522609301.85,51084,10.56,71094.5,-10.97,-13.37,-13.01,0,*62
1522609303.09,51085,10.56,71008.0,-10.99,-13.69,-13.11,0,*67
1522609304.33,51086,10.56,71026.0,-10.99,-13.55,-13.11,0,*6B
1522609305.59,51087,10.56,71036.3,-10.99,-13.65,-13.01,0,*68
1522609306.83,51088,10.56,71106.8,-10.99,-13.55,-12.89,0,*65
1522609308.08,51089,10.56,71112.3,-10.97,-13.51,-12.79,0,*61
1522609309.37,51090,10.56,71138.8,-10.99,-12.71,-12.15,0,*6E
1522609310.63,51091,10.56,71180.3,-10.99,-12.53,-12.03,0,*68
1522609311.93,51092,10.56,71170.3,-10.99,-12.53,-12.11,0,*68
1522609313.17,51093,10.56,71170.3,-10.99,-12.29,-12.03,0,*67
1522609314.44,51094,10.56,71182.8,-10.99,-12.15,-12.03,0,*6F
1522609315.65,51095,10.56,71152.5,-10.97,-12.43,-12.39,0,*6A
1522609316.95,51096,10.56,71160.0,-10.99,-12.79,-12.71,0,*62
1522609318.21,51097,10.56,71168.0,-10.99,-12.79,-12.43,0,*62
1522609319.47,51098,10.56,71080.0,-10.97,-12.65,-12.57,0,*6B
1522609320.76,51099,10.56,71126.8,-10.99,-12.79,-12.65,0,*68
1522609322.0,51100,10.63,71094.3,-10.97,-13.11,-12.71,0,*6D
1522609323.27,51101,10.56,71134.0,-10.99,-13.37,-12.89,0,*61
1522609324.51,51102,10.56,71174.5,-10.99,-13.55,-12.89,0,*66
1522609325.78,51103,10.56,71226.5,-10.99,-13.43,-12.71,0,*67
1522609327.04,51104,10.56,71210.3,-10.99,-12.83,-12.43,0,*6C
1522609328.31,51105,10.56,71150.3,-10.99,-12.65,-12.39,0,*68
1522609329.57,51106,10.63,71104.3,-10.99,-12.53,-12.25,0,*63
1522609330.86,51107,10.56,71078.5,-10.99,-12.53,-12.15,0,*61
1522609332.11,51108,10.56,71084.0,-10.99,-12.25,-12.03,0,*68
1522609333.37,51109,10.56,71126.0,-10.97,-12.11,-11.89,0,*61
1522609334.64,51110,10.56,71106.0,-10.99,-12.03,-11.97,0,*6B
1522609335.9,51111,10.56,71174.8,-10.99,-12.03,-11.97,0,*6A
1522609337.19,51112,10.56,71084.5,-10.99,-11.97,-11.89,0,*68
1522609338.45,51113,10.56,71138.0,-10.97,-11.97,-11.97,0,*68
1522609339.69,51114,10.56,71134.3,-10.97,-12.03,-11.89,0,*6E
1522609340.96,51115,10.56,71138.3,-10.97,-12.11,-11.97,0,*63
1522609342.2,51116,10.56,71086.5,-10.99,-12.03,-12.03,0,*63
1522609343.49,51117,10.56,71012.8,-10.99,-12.15,-12.11,0,*66
1522609344.75,51118,10.56,71038.0,-10.99,-12.03,-11.97,0,*63
1522609346.04,51119,10.56,71100.5,-10.99,-11.89,-11.89,0,*6C
1522609347.31,51120,10.56,71120.8,-10.97,-11.89,-11.89,0,*68
1522609348.59,51121,10.56,71130.5,-10.99,-11.89,-11.85,0,*6B
1522609349.88,51122,10.56,71140.3,-10.99,-11.97,-11.85,0,*67
1522609351.17,51123,10.56,71106.0,-10.99,-11.97,-11.89,0,*6A
1522609352.44,51124,10.56,71080.3,-10.99,-12.03,-11.97,0,*6C
1522609353.65,51125,10.56,71144.0,-10.97,-12.29,-12.25,0,*61
1522609354.87,51126,10.56,71156.5,-10.97,-12.29,-12.03,0,*66
1522609356.14,51127,10.63,71140.3,-10.97,-12.11,-11.89,0,*6D
1522609357.43,51128,10.56,71142.8,-10.99,-11.97,-11.89,0,*61
1522609358.7,51129,10.56,71146.8,-10.99,-11.97,-12.03,0,*61
1522609359.94,51130,10.56,71144.0,-10.97,-12.11,-12.03,0,*6A
1522609361.18,51131,10.56,71100.3,-10.97,-12.11,-12.03,0,*6B
1522609362.45,51132,10.56,71174.3,-10.99,-12.11,-12.03,0,*66
1522609363.72,51133,10.56,71158.3,-10.99,-12.25,-12.11,0,*63
1522609364.98,51134,10.56,71136.0,-10.99,-12.29,-12.11,0,*68
1522609366.27,51135,10.56,71056.5,-10.99,-12.15,-11.97,0,*6B
1522609367.56,51136,10.56,71110.5,-10.99,-11.97,-11.89,0,*6E
1522609368.83,51137,10.56,71192.5,-10.99,-12.03,-11.89,0,*61
1522609370.12,51138,10.56,71158.3,-10.99,-11.97,-11.89,0,*60
1522609371.38,51139,10.56,71120.0,-10.99,-12.03,-11.89,0,*6F
1522609372.65,51140,10.56,71174.8,-10.97,-11.89,-11.89,0,*6E
1522609373.94,51141,10.56,71208.0,-10.99,-11.89,-11.81,0,*69
1522609375.23,51142,10.56,71178.5,-10.99,-11.97,-11.89,0,*6D
1522609376.47,51143,10.56,71172.8,-10.97,-12.03,-11.89,0,*6C
1522609377.74,51144,10.56,71122.8,-10.99,-12.11,-12.03,0,*67
1522609379.02,51145,10.56,71066.8,-10.99,-12.11,-11.97,0,*68
1522609380.29,51146,10.56,71136.3,-10.99,-12.03,-11.97,0,*68
1522609381.58,51147,10.56,71096.5,-10.99,-11.97,-11.89,0,*68
1522609382.87,51148,10.56,71180.8,-10.99,-11.97,-11.89,0,*67
1522609384.11,51149,10.56,71110.3,-10.99,-12.29,-12.29,0,*69
1522609385.33,51150,10.56,71242.3,-10.97,-12.43,-12.39,0,*62
1522609386.59,51151,10.56,71202.0,-10.99,-12.83,-12.29,0,*60
1522609387.85,51152,10.56,71200.0,-10.99,-12.39,-12.15,0,*6D
1522609389.12,51153,10.56,71190.8,-10.99,-12.25,-12.11,0,*65
1522609390.36,51154,10.56,71110.0,-10.97,-12.43,-12.53,0,*6A
1522609391.64,51155,10.56,71170.0,-10.99,-12.83,-12.65,0,*6C
1522609392.92,51156,10.56,71208.5,-10.99,-12.83,-12.53,0,*6A
1522609394.19,51157,10.56,71166.0,-10.99,-12.57,-12.29,0,*6F
1522609395.43,51158,10.56,71096.5,-10.99,-12.43,-12.03,0,*6D
1522609396.69,51159,10.56,71070.5,-10.99,-12.29,-12.15,0,*67
1522609397.91,51160,10.56,71142.8,-10.97,-12.43,-12.25,0,*6C
1522609399.15,51161,10.56,71214.8,-10.99,-12.29,-12.25,0,*6F
1522609400.41,51162,10.56,71210.5,-10.97,-12.15,-12.15,0,*6E
1522609401.68,51163,10.56,71180.5,-10.99,-12.25,-12.11,0,*66
1522609402.97,51164,10.56,71162.0,-10.99,-12.15,-12.11,0,*62
1522609404.21,51165,10.56,71196.5,-10.99,-12.39,-12.43,0,*6A
1522609405.45,51166,10.56,71224.8,-10.97,-12.57,-12.39,0,*62
1522609406.74,51167,10.56,71254.8,-10.99,-12.53,-12.15,0,*67
1522609407.97,51168,10.56,71208.0,-10.99,-12.39,-12.25,0,*67
1522609409.24,51169,10.56,71198.0,-10.99,-12.29,-11.97,0,*6D
1522609410.48,51170,10.56,71238.8,-10.97,-12.25,-12.11,0,*6A
1522609411.72,51171,10.56,71128.8,-10.99,-12.39,-12.25,0,*6F
1522609413.02,51172,10.56,71170.5,-10.99,-12.57,-12.71,0,*65
1522609414.28,51173,10.63,71262.0,-10.99,-13.37,-13.11,0,*64
1522609415.51,51174,10.56,71124.0,-10.97,-13.43,-13.01,0,*6F
1522609416.81,51175,10.56,71200.8,-10.99,-13.37,-12.71,0,*65
1522609418.07,51176,10.56,71150.5,-10.99,-13.15,-12.83,0,*6B
1522609419.31,51177,10.56,71170.5,-10.99,-13.23,-12.97,0,*6A
1522609420.56,51178,10.56,71142.0,-10.99,-13.51,-12.89,0,*6F
1522609421.82,51179,10.56,71128.3,-10.99,-12.89,-12.57,0,*69
1522609423.11,51180,10.56,71136.5,-10.99,-12.71,-12.53,0,*6C
1522609424.35,51181,10.56,71222.5,-10.97,-12.71,-12.43,0,*62
1522609425.64,51182,10.56,71238.3,-10.99,-12.65,-12.65,0,*6E
1522609426.91,51183,10.56,71216.5,-10.99,-12.97,-12.71,0,*67
1522609428.18,51184,10.56,71212.5,-10.99,-13.11,-12.71,0,*6F
1522609429.46,51185,10.56,71184.0,-10.99,-12.83,-12.57,0,*60
1522609430.73,51186,10.56,71190.8,-10.99,-12.57,-12.29,0,*63
1522609431.97,51187,10.56,71186.3,-10.99,-12.39,-12.25,0,*66
1522609433.18,51188,10.56,71124.0,-11.01,-12.43,-12.29,0,*68
1522609434.39,51189,10.56,71220.5,-11.01,-12.39,-12.25,0,*68
1522609435.66,51190,10.56,71134.0,-10.99,-12.39,-12.11,0,*67
1522609436.9,51191,10.63,71122.0,-10.99,-12.25,-12.03,0,*68
1522609438.17,51192,10.56,71138.0,-10.99,-12.15,-12.03,0,*68
1522609439.43,51193,10.56,71168.0,-10.99,-12.25,-12.15,0,*6D
1522609440.68,51194,10.56,71118.0,-11.01,-12.25,-12.11,0,*6E
1522609441.89,51195,10.56,71160.5,-11.01,-12.25,-12.25,0,*68
1522609443.11,51196,10.56,71146.5,-11.01,-12.39,-12.29,0,*6A
1522609444.34,51197,10.56,71208.0,-11.01,-12.39,-12.15,0,*64
1522609445.59,51198,10.56,71206.3,-11.01,-12.53,-12.25,0,*64
1522609446.8,51199,10.56,71248.8,-11.01,-12.29,-12.25,0,*68
1522609448.02,51200,10.56,71224.5,-11.01,-12.39,-12.25,0,*6A
1522609449.31,51201,10.56,71274.5,-10.99,-12.57,-12.53,0,*62
1522609450.55,51202,10.56,71222.3,-11.01,-12.71,-12.43,0,*64
1522609451.76,51203,10.56,71168.3,-11.01,-12.39,-12.39,0,*64
1522609452.98,51204,10.56,71224.3,-11.01,-12.43,-12.29,0,*6F
1522609454.24,51205,10.56,71186.8,-11.01,-12.53,-12.57,0,*66
1522609455.51,51206,10.56,70970.5,-11.01,-12.65,-12.57,0,*60
1522609456.77,51207,10.56,71210.5,-11.01,-12.71,-12.53,0,*60
1522609458.04,51208,10.56,71110.0,-11.01,-13.01,-12.79,0,*61
1522609459.31,51209,10.56,71096.5,-11.01,-13.29,-13.01,0,*64
1522609460.54,51210,10.63,71154.3,-11.01,-13.43,-13.01,0,*60
1522609461.75,51211,10.56,71144.0,-11.01,-13.43,-13.11,0,*60
1522609463.0,51212,10.56,71144.5,-11.01,-13.29,-13.11,0,*6F
1522609464.23,51213,10.56,71040.0,-11.01,-13.43,-13.01,0,*63
1522609465.48,51214,10.56,71164.0,-11.03,-13.43,-13.19,0,*6F
1522609466.71,51215,10.56,71152.0,-11.03,-13.47,-13.15,0,*66
1522609467.95,51216,10.56,71168.8,-11.03,-13.93,-13.43,0,*6F
1522609469.22,51217,10.56,71194.8,-11.01,-13.83,-13.37,0,*6E
1522609470.45,51218,10.56,71218.5,-11.01,-13.73,-13.37,0,*6E
1522609471.66,51219,10.56,71204.5,-11.01,-13.65,-13.15,0,*68
1522609472.88,51220,10.56,71202.3,-11.01,-13.55,-13.15,0,*61
1522609474.11,51221,10.56,71152.3,-11.01,-13.73,-13.29,0,*6B
1522609475.41,51222,10.56,71156.0,-11.03,-13.87,-13.33,0,*6A
1522609476.64,51223,10.56,71160.3,-11.01,-13.79,-13.55,0,*68
1522609477.91,51224,10.56,71162.5,-11.01,-13.87,-13.29,0,*65
1522609479.12,51225,10.56,71154.3,-11.01,-13.65,-12.89,0,*63
1522609480.41,51226,10.56,71144.8,-11.03,-12.83,-12.61,0,*6D
1522609481.68,51227,10.56,71150.3,-11.03,-12.75,-12.43,0,*65
1522609482.94,51228,10.56,71144.5,-11.03,-12.61,-12.43,0,*6F
1522609484.18,51229,10.56,71170.5,-11.01,-12.57,-12.29,0,*65
1522609485.43,51230,10.56,71178.8,-11.01,-12.53,-12.43,0,*65
1522609486.69,51231,10.56,71186.0,-11.03,-12.61,-12.29,0,*6B
1522609487.94,51232,10.56,71220.5,-11.03,-12.47,-12.29,0,*6C
1522609489.23,51233,10.56,71234.8,-11.03,-12.35,-12.15,0,*67
1522609490.5,51234,10.56,71254.8,-11.03,-12.21,-12.15,0,*65
1522609491.78,51235,10.56,71268.3,-11.03,-12.21,-12.07,0,*67
1522609492.99,51236,10.56,71266.5,-11.01,-12.03,-12.03,0,*62
1522609494.23,51237,10.56,71286.8,-11.01,-12.03,-11.97,0,*6D
1522609495.52,51238,10.56,71270.5,-11.03,-12.07,-11.97,0,*64
1522609496.79,51239,10.56,71244.3,-11.03,-12.29,-12.15,0,*60
1522609498.03,51240,10.56,71224.0,-11.01,-12.25,-12.11,0,*64
1522609499.27,51241,10.56,71228.0,-11.01,-12.03,-12.11,0,*61
1522609500.54,51242,10.56,71256.0,-11.03,-12.07,-12.03,0,*67
1522609501.81,51243,10.56,71136.3,-11.03,-12.21,-12.15,0,*65
1522609503.11,51244,10.56,71232.0,-11.03,-12.07,-11.93,0,*6B
1522609504.35,51245,10.56,71248.3,-11.01,-12.11,-12.03,0,*65
1522609505.62,51246,10.56,71230.8,-11.03,-12.21,-12.15,0,*60
1522609506.89,51247,10.56,71230.8,-11.03,-12.15,-12.03,0,*61
1522609508.16,51248,10.56,71226.3,-11.03,-12.15,-12.03,0,*6E
1522609509.43,51249,10.56,71234.3,-11.03,-12.07,-12.03,0,*6C
1522609510.7,51250,10.56,71206.3,-11.01,-12.11,-11.89,0,*60
1522609511.99,51251,10.56,71216.5,-11.03,-12.15,-12.07,0,*62
1522609513.24,51252,10.56,71172.3,-11.03,-12.29,-12.21,0,*6A
1522609514.46,51253,10.56,71216.5,-11.01,-12.39,-12.29,0,*60
1522609515.73,51254,10.56,71226.3,-11.03,-13.33,-13.19,0,*6C
1522609517.0,51255,10.56,71230.8,-11.01,-13.37,-12.79,0,*6C
1522609518.26,51256,10.56,71254.5,-11.01,-12.83,-12.53,0,*69
1522609519.54,51257,10.56,71288.3,-11.03,-12.93,-12.71,0,*6B
1522609520.78,51258,10.56,71302.8,-11.01,-12.89,-12.71,0,*6D
1522609522.05,51259,10.56,71290.3,-11.01,-13.01,-12.71,0,*6D
1522609523.3,51260,10.56,71300.0,-11.01,-12.75,-12.43,0,*64
1522609524.56,51261,10.56,71304.5,-11.01,-12.53,-12.15,0,*62
1522609525.83,51262,10.63,71280.5,-11.01,-12.53,-12.11,0,*65
1522609527.05,51263,10.56,71292.3,-11.01,-12.39,-12.03,0,*6B
1522609528.32,51264,10.56,71308.5,-11.03,-12.29,-12.07,0,*6B
1522609529.55,51265,10.56,71306.0,-11.01,-12.03,-11.97,0,*6A
1522609530.85,51266,10.56,71242.8,-11.03,-12.15,-12.07,0,*66
1522609532.09,51267,10.56,71274.0,-11.01,-12.15,-12.03,0,*61
1522609533.36,51268,10.56,71314.0,-11.03,-12.07,-12.03,0,*6F
1522609534.64,51269,10.56,71302.0,-11.03,-12.21,-12.07,0,*6E
1522609535.91,51270,10.56,71318.3,-11.01,-12.11,-11.89,0,*62
1522609537.12,51271,10.56,71270.3,-11.01,-12.03,-12.03,0,*61
1522609538.39,51272,10.56,71222.5,-11.03,-12.21,-12.15,0,*67
1522609539.66,51273,10.56,71200.5,-11.03,-12.21,-12.15,0,*66
1522609540.93,51274,10.56,71218.5,-11.01,-12.11,-12.15,0,*60
1522609542.19,51275,10.56,71290.0,-11.01,-12.15,-12.11,0,*61
1522609543.46,51276,10.56,71300.5,-11.01,-12.15,-12.15,0,*66
1522609544.7,51277,10.56,71306.0,-11.01,-12.29,-12.15,0,*68
1522609545.96,51278,10.56,71308.0,-11.01,-12.11,-11.97,0,*65
1522609547.2,51279,10.56,71324.0,-11.01,-12.03,-11.89,0,*68
1522609548.45,51280,10.56,71298.8,-11.01,-12.11,-12.03,0,*6C
1522609549.71,51281,10.56,71262.0,-11.01,-12.15,-12.11,0,*6A
1522609550.95,51282,10.56,71230.3,-11.03,-12.43,-12.29,0,*63
1522609552.25,51283,10.63,71122.3,-11.03,-12.71,-12.71,0,*6E
1522609553.49,51284,10.56,71162.0,-11.01,-13.23,-13.01,0,*6B
1522609554.75,51285,10.56,71196.0,-11.03,-13.55,-13.01,0,*69
1522609556.02,51286,10.56,71226.5,-11.01,-13.37,-12.79,0,*62
1522609557.24,51287,10.56,71276.0,-11.01,-12.89,-12.25,0,*6E
1522609558.52,51288,10.56,71274.0,-11.03,-12.61,-12.15,0,*66
1522609559.82,51289,10.56,71232.3,-11.03,-12.35,-12.07,0,*65
1522609561.06,51290,10.56,71226.0,-11.01,-12.29,-12.15,0,*61
1522609562.33,51291,10.56,71300.3,-11.03,-12.29,-12.07,0,*61
1522609563.55,51292,10.56,71220.5,-11.01,-12.25,-12.25,0,*6C
1522609564.84,51293,10.56,71112.0,-11.03,-12.57,-12.61,0,*6A
1522609566.05,51294,10.56,71084.8,-11.01,-13.11,-13.11,0,*6A
1522609567.32,51295,10.56,71096.0,-11.03,-13.61,-13.15,0,*6A
1522609568.58,51296,10.56,71114.3,-11.01,-13.37,-12.79,0,*63
1522609569.88,51297,10.56,71090.8,-11.03,-12.71,-12.35,0,*6B
1522609571.09,51298,10.56,71104.3,-11.01,-12.43,-12.29,0,*6A
1522609572.37,51299,10.56,71104.0,-11.03,-12.35,-12.21,0,*60
1522609573.61,51300,10.56,71112.0,-11.01,-12.25,-12.15,0,*65
1522609574.83,51301,10.56,71156.3,-11.01,-12.25,-12.03,0,*63
1522609576.07,51302,10.56,71152.8,-11.03,-12.47,-12.47,0,*66
1522609577.33,51303,10.56,71164.0,-11.01,-12.83,-12.53,0,*68
1522609578.58,51304,10.56,71180.5,-11.01,-12.75,-12.43,0,*67
1522609579.82,51305,10.56,71182.3,-11.01,-12.89,-12.71,0,*64
1522609581.06,51306,10.56,71108.0,-11.01,-13.11,-12.65,0,*62
1522609582.29,51307,10.56,71114.0,-11.01,-12.83,-12.39,0,*60
1522609583.54,51308,10.56,71150.5,-11.01,-12.53,-12.03,0,*6B
1522609584.75,51309,10.56,71150.3,-11.01,-12.43,-12.39,0,*62
1522609585.99,51310,10.56,71106.3,-11.01,-12.65,-12.39,0,*6E
1522609587.21,51311,10.56,71138.0,-11.01,-12.47,-12.29,0,*6E
1522609588.45,51312,10.56,71156.8,-10.99,-12.39,-12.25,0,*68
1522609589.71,51313,10.63,71162.8,-10.99,-12.65,-12.39,0,*6D
1522609590.98,51314,10.56,71166.8,-10.99,-12.57,-12.29,0,*6A
1522609592.22,51315,10.56,71172.0,-10.99,-12.25,-12.03,0,*66
1522609593.48,51316,10.56,71196.8,-10.99,-12.03,-11.89,0,*60
1522609594.77,51317,10.63,71196.5,-10.99,-11.97,-11.85,0,*63
1522609596.06,51318,10.56,71234.3,-10.99,-11.97,-11.97,0,*6F
1522609597.33,51319,10.56,71222.5,-10.99,-12.29,-12.11,0,*65
1522609598.62,51320,10.56,71218.3,-10.99,-12.15,-11.97,0,*6D
1522609599.86,51321,10.56,71222.5,-10.99,-12.03,-12.03,0,*65
1522609601.1,51322,10.56,71234.5,-11.01,-12.11,-12.25,0,*61
1522609602.31,51323,10.56,71208.8,-11.01,-12.39,-12.29,0,*66
1522609603.55,51324,10.56,71206.5,-10.99,-12.39,-12.43,0,*6D
1522609604.81,51325,10.56,71228.8,-10.99,-12.57,-12.43,0,*64
1522609606.1,51326,10.56,71178.3,-10.99,-12.71,-12.65,0,*67
1522609607.33,51327,10.56,71164.8,-11.01,-12.89,-12.65,0,*61
1522609608.62,51328,10.56,71166.8,-10.99,-13.01,-12.65,0,*6F
1522609609.89,51329,10.56,71022.0,-10.99,-13.11,-12.71,0,*6A
1522609611.17,51330,10.56,71198.5,-10.99,-13.01,-12.65,0,*66
1522609612.44,51331,10.56,71086.0,-10.99,-13.11,-12.71,0,*63
1522609613.71,51332,10.56,71046.5,-10.99,-12.97,-12.79,0,*67
1522609614.98,51333,10.56,71230.0,-10.99,-13.15,-12.71,0,*65
1522609616.24,51334,10.56,71162.5,-10.99,-13.15,-12.57,0,*66
1522609617.52,51335,10.56,71212.8,-10.99,-12.83,-12.15,0,*6F
1522609618.78,51336,10.56,71214.3,-10.99,-12.39,-11.89,0,*6B
1522609620.08,51337,10.56,71172.3,-10.99,-11.89,-11.89,0,*62
1522609621.34,51338,10.56,71172.8,-10.97,-11.97,-11.89,0,*6C
1522609622.61,51339,10.56,71186.5,-10.97,-11.97,-11.85,0,*61
1522609623.9,51340,10.56,71222.8,-10.99,-11.89,-11.85,0,*6E
1522609625.18,51341,10.56,71130.5,-10.99,-11.97,-11.85,0,*60
1522609626.47,51342,10.56,71122.8,-10.99,-11.89,-11.89,0,*60
1522609627.77,51343,10.56,71108.0,-10.99,-11.97,-11.89,0,*6E
1522609629.03,51344,10.56,71052.5,-10.99,-12.25,-12.11,0,*61
1522609630.32,51345,10.56,71090.5,-10.99,-11.97,-11.97,0,*67
1522609631.61,51346,10.56,71158.0,-10.99,-11.89,-11.89,0,*64
1522609632.9,51347,10.56,71208.0,-10.99,-11.89,-11.89,0,*65
1522609634.17,51348,10.56,71134.0,-10.99,-12.03,-12.15,0,*6D
1522609635.4,51349,10.56,71184.0,-10.99,-12.39,-12.43,0,*66
1522609636.62,51350,10.56,71192.5,-11.01,-13.11,-12.89,0,*63
1522609637.87,51351,10.56,71196.8,-11.01,-13.23,-12.71,0,*64
1522609639.11,51352,10.56,71218.3,-10.99,-13.23,-12.97,0,*6F
1522609640.35,51353,10.56,71278.3,-10.99,-13.43,-12.89,0,*67
1522609641.64,51354,10.56,71048.0,-10.99,-13.01,-12.65,0,*64
1522609642.88,51355,10.56,71074.8,-10.99,-13.11,-12.89,0,*66
1522609644.14,51356,10.56,71090.5,-10.99,-12.97,-12.57,0,*69
1522609645.39,51357,10.56,71062.5,-11.01,-12.89,-12.71,0,*63
1522609646.65,51358,10.56,71126.8,-10.99,-12.79,-12.43,0,*62
1522609647.91,51359,10.56,71052.8,-10.99,-12.43,-12.15,0,*69
1522609649.15,51360,10.63,71070.3,-10.99,-12.25,-12.03,0,*64
1522609650.4,51361,10.56,71072.3,-11.01,-12.15,-12.03,0,*66
1522609651.66,51362,10.56,71050.0,-11.01,-12.15,-12.11,0,*66
1522609652.95,51363,10.56,71074.0,-10.99,-12.15,-12.11,0,*67
1522609654.22,51364,10.56,71060.3,-11.01,-12.15,-12.15,0,*64
1522609655.46,51365,10.56,71068.3,-11.01,-12.29,-12.11,0,*6E
1522609656.7,51366,10.56,71086.0,-11.01,-12.11,-12.03,0,*65
1522609657.97,51367,10.56,71112.8,-11.01,-11.97,-11.97,0,*67
1522609659.23,51368,10.56,71126.3,-11.01,-12.11,-11.97,0,*65
1522609660.47,51369,10.56,71128.3,-11.01,-12.03,-11.97,0,*67
1522609661.71,51370,10.56,71132.8,-11.01,-12.03,-11.89,0,*60
1522609662.97,51371,10.56,71130.5,-11.01,-11.97,-11.97,0,*60
1522609664.22,51372,10.56,71140.3,-11.01,-12.03,-11.89,0,*62
1522609665.48,51373,10.56,71186.8,-11.01,-11.97,-11.89,0,*6D
1522609666.75,51374,10.56,71174.8,-11.01,-11.97,-11.89,0,*6A
1522609667.99,51375,10.56,71144.0,-11.01,-12.15,-12.03,0,*63
1522609669.23,51376,10.56,71174.5,-10.99,-12.39,-12.25,0,*6A
1522609670.47,51377,10.56,71160.0,-10.99,-12.39,-12.25,0,*6B
1522609671.7,51378,10.56,71158.5,-10.99,-12.39,-12.29,0,*68
1522609672.94,51379,10.56,71206.5,-11.01,-12.25,-12.15,0,*6B
1522609674.19,51380,10.56,71184.3,-11.01,-12.29,-12.11,0,*65
1522609675.46,51381,10.56,71232.3,-11.01,-12.15,-12.11,0,*6B
1522609676.7,51382,10.56,71248.0,-11.01,-12.25,-12.15,0,*6F
1522609677.94,51383,10.56,71218.0,-10.99,-12.29,-12.25,0,*61
1522609679.23,51384,10.56,71218.0,-10.99,-12.53,-12.53,0,*6A
1522609680.52,51385,10.56,71198.8,-10.99,-12.71,-12.65,0,*6E
1522609681.78,51386,10.63,71210.0,-11.01,-12.71,-12.57,0,*6C
1522609683.05,51387,10.56,71190.0,-11.01,-12.71,-12.53,0,*69
1522609684.29,51388,10.63,71216.0,-11.01,-12.39,-12.15,0,*68
1522609685.5,51389,10.63,71218.3,-11.01,-12.43,-12.29,0,*6B
1522609686.72,51390,10.63,71216.5,-11.01,-12.39,-12.29,0,*6E
1522609687.98,51391,10.56,71204.5,-10.99,-12.53,-12.39,0,*62
1522609689.24,51392,10.63,71198.8,-10.99,-12.43,-12.15,0,*6E
1522609690.49,51393,10.56,71228.8,-11.01,-12.25,-12.11,0,*6B
1522609691.73,51394,10.56,71234.0,-11.01,-12.11,-12.03,0,*68
1522609693.0,51395,10.56,71208.5,-11.01,-12.07,-11.97,0,*60
1522609694.27,51396,10.63,71180.5,-11.03,-12.15,-12.03,0,*6C